When you browse on this site, cookies collect data to enhance your experience and personalize the content and advertising you see.
Visit our Privacy Policy to learn more. By continuing to use the site, you agree to this use of cookies and data.
  • In United Kingdom
  • List of Countries
  • For 7 days
  • Water Temperature
  • Weather Map
  • Weather Widgets
  • user-avatar
    Login

    Hourly Weather Kyrdzhali

    Today, 14 October, Monday

    Time Temperature Precipitation Wind Pressure Humidity
    00:00 +15°C° 0 mm 1 mps 731 mmHg 59%
    01:00 +15°C° 0 mm 1 mps 731 mmHg 61%
    02:00 +14°C° 0 mm 1 mps 732 mmHg 63%
    03:00 +14°C° 0 mm 1 mps 731 mmHg 64%
    04:00 +14°C° 0 mm 1 mps 731 mmHg 64%
    05:00 +13°C° 0 mm 1 mps 731 mmHg 64%
    06:00 +14°C° 0 mm 1 mps 731 mmHg 61%
    07:00 +15°C° 0 mm 1 mps 731 mmHg 58%
    08:00 +18°C° 0 mm 1 mps 732 mmHg 54%
    09:00 +20°C° 0 mm 1 mps 732 mmHg 47%
    10:00 +22°C° 0 mm 1 mps 732 mmHg 40%
    11:00 +24°C° 0 mm 1 mps 732 mmHg 34%
    12:00 +25°C° 0 mm 1 mps 732 mmHg 31%
    13:00 +25°C° 0 mm 1 mps 732 mmHg 29%
    14:00 +26°C° 0 mm 1 mps 731 mmHg 27%
    15:00 +25°C° 0 mm 1 mps 731 mmHg 31%
    16:00 +24°C° 0 mm 1 mps 730 mmHg 35%
    17:00 +23°C° 0 mm 1 mps 730 mmHg 40%
    18:00 +21°C° 0 mm 1 mps 730 mmHg 42%
    19:00 +20°C° 0 mm 1 mps 730 mmHg 44%
    20:00 +18°C° 0 mm 1 mps 730 mmHg 46%
    21:00 +18°C° 0 mm 1 mps 730 mmHg 47%
    22:00 +16°C° 0 mm 1 mps 730 mmHg 47%
    23:00 +16°C° 0 mm 1 mps 730 mmHg 48%

    Tomorrow, 15 October, Tuesday

    Time Temperature Precipitation Wind Pressure Humidity
    00:00 +15°C° 0 mm 1 mps 730 mmHg 50%
    01:00 +15°C° 0 mm 1 mps 730 mmHg 51%
    02:00 +15°C° 0 mm 1 mps 729 mmHg 53%
    03:00 +14°C° 0 mm 1 mps 729 mmHg 55%
    04:00 +14°C° 0 mm 1 mps 729 mmHg 56%
    05:00 +14°C° 0 mm 1 mps 728 mmHg 57%
    06:00 +15°C° 0 mm 1 mps 729 mmHg 55%
    07:00 +16°C° 0 mm 1 mps 729 mmHg 53%
    08:00 +18°C° 0 mm 1 mps 729 mmHg 51%
    09:00 +20°C° 0 mm 1 mps 729 mmHg 45%
    10:00 +22°C° 0 mm 1 mps 730 mmHg 40%
    11:00 +24°C° 0 mm 1 mps 730 mmHg 34%
    12:00 +25°C° 0 mm 1 mps 729 mmHg 32%
    13:00 +26°C° 0 mm 1 mps 729 mmHg 30%
    14:00 +27°C° 0 mm 2 mps 729 mmHg 28%
    15:00 +26°C° 0 mm 1 mps 728 mmHg 33%
    16:00 +24°C° 0 mm 1 mps 728 mmHg 37%
    17:00 +23°C° 0 mm 1 mps 727 mmHg 42%
    18:00 +22°C° 0 mm 1 mps 727 mmHg 45%
    19:00 +20°C° 0 mm 1 mps 727 mmHg 47%
    20:00 +17°C° 0 mm 0 mps 728 mmHg 50%
    21:00 +18°C° 0 mm 1 mps 728 mmHg 51%
    22:00 +18°C° 0 mm 1 mps 728 mmHg 52%
    23:00 +16°C° 0 mm 1 mps 728 mmHg 53%

    Day after tomorrow, 16 October, Wednesday

    Time Temperature Precipitation Wind Pressure Humidity
    00:00 +16°C° 0 mm 1 mps 727 mmHg 55%
    01:00 +15°C° 0 mm 1 mps 727 mmHg 58%
    02:00 +15°C° 0 mm 1 mps 727 mmHg 60%
    03:00 +15°C° 0 mm 1 mps 727 mmHg 62%
    04:00 +14°C° 0 mm 1 mps 727 mmHg 64%
    05:00 +14°C° 0 mm 1 mps 727 mmHg 66%
    06:00 +15°C° 0 mm 1 mps 727 mmHg 64%
    07:00 +16°C° 0 mm 1 mps 728 mmHg 62%
    08:00 +18°C° 0 mm 1 mps 728 mmHg 60%
    09:00 +20°C° 0 mm 1 mps 728 mmHg 53%
    10:00 +22°C° 0 mm 1 mps 728 mmHg 46%
    11:00 +24°C° 0 mm 1 mps 728 mmHg 38%
    12:00 +25°C° 0 mm 1 mps 728 mmHg 36%
    13:00 +26°C° 0 mm 2 mps 728 mmHg 34%
    14:00 +26°C° 0 mm 2 mps 728 mmHg 32%
    15:00 +25°C° 0 mm 1 mps 727 mmHg 36%
    16:00 +24°C° 0 mm 1 mps 727 mmHg 41%
    17:00 +23°C° 0 mm 1 mps 727 mmHg 45%
    18:00 +22°C° 0 mm 1 mps 727 mmHg 48%
    19:00 +20°C° 0 mm 1 mps 727 mmHg 51%
    20:00 +19°C° 0 mm 1 mps 727 mmHg 54%
    21:00 +18°C° 0 mm 1 mps 727 mmHg 56%
    22:00 +18°C° 0 mm 1 mps 728 mmHg 57%
    23:00 +16°C° 0 mm 1 mps 728 mmHg 59%

    17 October, Thursday

    Time Temperature Precipitation Wind Pressure Humidity
    00:00 +16°C° 0 mm 1 mps 728 mmHg 61%
    01:00 +16°C° 0 mm 1 mps 728 mmHg 63%
    02:00 +15°C° 0 mm 1 mps 728 mmHg 65%
    03:00 +15°C° 0 mm 1 mps 728 mmHg 66%
    04:00 +14°C° 0 mm 1 mps 728 mmHg 67%
    05:00 +14°C° 0 mm 1 mps 728 mmHg 68%
    06:00 +15°C° 0 mm 1 mps 728 mmHg 65%
    07:00 +16°C° 0 mm 1 mps 728 mmHg 62%
    08:00 +18°C° 0 mm 1 mps 728 mmHg 59%
    09:00 +20°C° 0 mm 1 mps 729 mmHg 53%
    10:00 +22°C° 0 mm 1 mps 729 mmHg 46%
    11:00 +24°C° 0 mm 2 mps 729 mmHg 39%
    12:00 +24°C° 0 mm 2 mps 729 mmHg 37%
    13:00 +25°C° 0 mm 2 mps 729 mmHg 35%
    14:00 +26°C° 0 mm 2 mps 728 mmHg 32%
    15:00 +25°C° 0 mm 1 mps 728 mmHg 36%
    16:00 +24°C° 0 mm 1 mps 728 mmHg 40%
    17:00 +23°C° 0 mm 1 mps 728 mmHg 43%
    18:00 +21°C° 0 mm 1 mps 728 mmHg 45%
    19:00 +20°C° 0 mm 1 mps 728 mmHg 47%
    20:00 +19°C° 0 mm 1 mps 728 mmHg 49%
    21:00 +19°C° 0 mm 1 mps 728 mmHg 50%
    22:00 +18°C° 0 mm 1 mps 728 mmHg 51%
    23:00 +18°C° 0 mm 1 mps 728 mmHg 51%

    18 October, Friday

    Time Temperature Precipitation Wind Pressure Humidity
    00:00 +18°C° 0 mm 1 mps 728 mmHg 53%
    01:00 +16°C° 0 mm 1 mps 728 mmHg 54%
    02:00 +16°C° 0 mm 1 mps 728 mmHg 56%
    03:00 +15°C° 0 mm 1 mps 728 mmHg 57%
    04:00 +15°C° 0 mm 1 mps 728 mmHg 58%
    05:00 +14°C° 0 mm 1 mps 728 mmHg 59%
    06:00 +15°C° 0 mm 1 mps 728 mmHg 56%
    07:00 +16°C° 0 mm 1 mps 729 mmHg 54%
    08:00 +18°C° 0 mm 1 mps 729 mmHg 51%
    09:00 +20°C° 0 mm 1 mps 729 mmHg 45%
    10:00 +22°C° 0 mm 1 mps 729 mmHg 40%
    11:00 +24°C° 0 mm 2 mps 730 mmHg 34%
    12:00 +24°C° 0 mm 2 mps 729 mmHg 32%
    13:00 +25°C° 0 mm 2 mps 729 mmHg 31%
    14:00 +25°C° 0 mm 2 mps 729 mmHg 29%
    15:00 +24°C° 0 mm 2 mps 728 mmHg 33%
    16:00 +23°C° 0 mm 1 mps 728 mmHg 37%
    17:00 +22°C° 0 mm 1 mps 728 mmHg 40%
    18:00 +21°C° 0 mm 1 mps 728 mmHg 42%
    19:00 +20°C° 0 mm 1 mps 728 mmHg 44%
    20:00 +18°C° 0 mm 1 mps 728 mmHg 46%
    21:00 +18°C° 0 mm 1 mps 728 mmHg 47%
    22:00 +18°C° 0 mm 1 mps 728 mmHg 48%
    23:00 +16°C° 0 mm 1 mps 728 mmHg 49%

    19 October, Saturday

    Time Temperature Precipitation Wind Pressure Humidity
    00:00 +16°C° 0 mm 1 mps 728 mmHg 51%
    01:00 +15°C° 0 mm 1 mps 728 mmHg 52%
    02:00 +15°C° 0 mm 1 mps 728 mmHg 53%
    03:00 +15°C° 0 mm 1 mps 728 mmHg 54%
    04:00 +14°C° 0 mm 1 mps 728 mmHg 55%
    05:00 +14°C° 0 mm 1 mps 727 mmHg 56%
    06:00 +15°C° 0 mm 1 mps 728 mmHg 55%
    07:00 +16°C° 0 mm 1 mps 728 mmHg 53%
    08:00 +16°C° 0 mm 1 mps 728 mmHg 52%
    09:00 +19°C° 0 mm 1 mps 728 mmHg 47%
    10:00 +21°C° 0 mm 1 mps 728 mmHg 42%
    11:00 +23°C° 0 mm 2 mps 729 mmHg 37%
    12:00 +24°C° 0 mm 2 mps 728 mmHg 35%
    13:00 +24°C° 0 mm 2 mps 728 mmHg 33%
    14:00 +25°C° 0 mm 2 mps 728 mmHg 31%
    15:00 +24°C° 0 mm 1 mps 728 mmHg 35%
    16:00 +23°C° 0 mm 1 mps 727 mmHg 38%
    17:00 +22°C° 0 mm 1 mps 727 mmHg 42%
    18:00 +20°C° 0 mm 1 mps 727 mmHg 44%
    19:00 +19°C° 0 mm 1 mps 727 mmHg 47%
    20:00 +16°C° 0 mm 0 mps 727 mmHg 49%
    21:00 +15°C° 0 mm 0 mps 727 mmHg 51%
    22:00 +15°C° 0 mm 0 mps 728 mmHg 52%
    23:00 +14°C° 0 mm 0 mps 728 mmHg 54%
    Show more